Location: Bucquoy
(50.1391°N, 2.7097°E)
Time: 03:24:00
(UTC+00:00)

Cosmos 1867 - Pass Details

Date: 06 May 2021
Orbit: 773 x 802 km, 65.0° (Epoch: 22 June)

Event Time Altitude Azimuth Distance (km) Brightness Sun altitude
Exits shadow 02:32:49 15° 254° (WSW) 2,034 5.2 -13.8°
Maximum altitude 02:37:02 43° 321° (NW) 1,110 4.4 -13.4°
Drops below altitude 10° 02:42:16 10° 33° (NNE) 2,385 7.5 -12.8°
Sets 02:44:51 0° 40° (NE) 3,320 8.9 -12.5°
